EW7603 Weather Reports


time (UTC)temp
C
wind
direction
speed
KPH
gust
KPH
rain 1hr
cm
rain 24hr
cm
rain mn
cm
humidity
%
barometer
mb
20260503193007 15 240 19.3 0.0 0.00 0.00 0.00 37 1009.9
20260503191506 15 243 17.7 0.0 0.00 0.00 0.00 38 1010.1
20260503190016 14 240 19.3 0.0 0.00 0.00 0.00 39 1010.3
20260503184507 15 182 20.9 0.0 0.00 0.00 0.00 39 1010.3
20260503183013 15 232 22.5 0.0 0.00 0.00 0.00 36 1010.3
20260503181510 15 233 16.1 0.0 0.00 0.00 0.00 36 1010.2
20260503180004 16 197 20.9 0.0 0.00 0.00 0.00 32 1009.9
20260503174503 17 207 16.1 0.0 0.00 0.00 0.00 28 1010.1
20260503173003 16 239 17.7 0.0 0.00 0.00 0.00 30 1010.4
20260503171559 17 211 17.7 0.0 0.00 0.00 0.00 33 1010.4
20260503170104 17 240 19.3 0.0 0.00 0.00 0.00 31 1010.6
20260503100113 1 213 3.2 0.0 0.00 0.00 0.00 71 1013.9
20260503081513 1 224 4.8 0.0 0.00 0.00 0.00 69 1014.1
20260503071619 1 186 4.8 0.0 0.00 0.00 0.00 72 1014.2
20260503070106 0 153 3.2 0.0 0.00 0.00 0.00 75 1014.3
20260503060113 0 206 1.6 0.0 0.00 0.00 0.00 75 1015.2
20260503054551 -1 206 3.2 0.0 0.00 0.00 0.00 73 1015.3
20260503053048 0 250 0.0 0.0 0.00 0.00 0.00 72 1015.4
20260503051547 0 253 0.0 0.0 0.00 0.00 0.00 72 1015.6
20260503050043 0 253 0.0 0.0 0.00 0.00 0.00 71 1015.6
20260503044610 0 253 0.0 0.0 0.00 0.00 0.00 70 1015.8
20260503043041 0 253 0.0 0.0 0.00 0.00 0.00 69 1015.8
20260503041540 0 254 1.6 0.0 0.00 0.00 0.00 68 1015.9
20260503040035 0 287 0.0 0.0 0.00 0.00 0.00 68 1016.0
20260503034535 0 287 0.0 0.0 0.00 0.00 0.00 66 1015.8
20260503033037 0 287 0.0 0.0 0.00 0.00 0.00 65 1015.9
20260503031532 0 287 0.0 0.0 0.00 0.00 0.00 65 1016.1
20260503030035 0 289 0.0 0.0 0.00 0.00 0.00 62 1016.3
20260503024529 1 289 0.0 0.0 0.00 0.00 0.00 59 1016.3
20260503023030 1 289 0.0 0.0 0.00 0.00 0.00 58 1016.3
20260503021528 1 289 0.0 0.0 0.00 0.00 0.00 55 1016.2
20260503020035 2 289 0.0 0.0 0.00 0.00 0.00 53 1016.1
20260503014528 2 289 0.0 0.0 0.00 0.00 0.00 50 1016.1
20260503013027 3 289 0.0 0.0 0.00 0.00 0.00 47 1016.1
20260503011527 3 289 0.0 0.0 0.00 0.00 0.00 43 1016.2
20260503010026 4 289 0.0 0.0 0.00 0.00 0.00 42 1016.1
20260503004526 5 289 0.0 0.0 0.00 0.00 0.00 37 1016.0
20260503003032 5 289 1.6 0.0 0.00 0.00 0.00 35 1015.8
20260503001524 5 303 4.8 0.0 0.00 0.00 0.00 35 1015.9
20260503000030 6 275 4.8 0.0 0.00 0.00 0.00 33 1015.9
20260502234545 6 267 8.0 0.0 0.00 0.00 0.00 31 1015.8
20260502233023 6 274 8.0 0.0 0.00 0.00 0.00 29 1015.8
20260502231529 7 316 8.0 0.0 0.00 0.00 0.00 28 1016.0
20260502230059 7 296 8.0 0.0 0.00 0.00 0.00 27 1016.0
20260502224603 7 280 8.0 0.0 0.00 0.00 0.00 28 1016.0
20260502223105 7 330 9.7 0.0 0.00 0.00 0.00 27 1016.0
20260502221602 7 249 11.3 0.0 0.00 0.00 0.00 28 1016.1
20260502214613 8 305 12.9 0.0 0.00 0.00 0.00 27 1016.1
20260502213117 8 268 9.7 0.0 0.00 0.00 0.00 30 1015.8
20260502211555 8 313 12.9 0.0 0.00 0.00 0.00 30 1015.7
20260502210051 8 34 8.0 0.0 0.00 0.00 0.00 33 1015.8
20260502204550 8 269 9.7 0.0 0.00 0.00 0.00 31 1016.0
20260502203110 8 316 9.7 0.0 0.00 0.00 0.00 31 1016.1
20260502201549 8 305 9.7 0.0 0.00 0.00 0.00 33 1016.2
20260502200055 8 255 9.7 0.0 0.00 0.00 0.00 36 1016.3
20260502194550 7 345 9.7 0.0 0.00 0.00 0.00 38 1016.5